QPF
0.00 0.00 0.01 0.04 0.11 0.11 0.07 0.03 0.02 0.01 0.01 0.00 0.00 0.00 0.01 0.02 0.04 0.07 0.07 0.05 0.03 0.03 0.04 0.05 0.05 0.05 0.06 0.06 0.06 0.07 0.05 0.06 0.09 0.14 0.10 0.08 0.09 0.10 0.11 0.10 0.08 0.09 0.09 0.08 0.09 0.09 0.08 0.08 0.10
0.00 0.00 0.02 0.07 0.11 0.09 0.05 0.03 0.01 0.00 0.00 0.00 0.00 0.00 0.01 0.01 0.01 0.03 0.05 0.03 0.02 0.02 0.03 0.03 0.03 0.03 0.05 0.07 0.07 0.07 0.05 0.05 0.08 0.14 0.14 0.11 0.10 0.11 0.14 0.14 0.14 0.12 0.11 0.10 0.11 0.11 0.09 0.07 0.08
0.00 0.00 0.03 0.08 0.10 0.07 0.04 0.02 0.01 0.00 0.00 0.00 0.00 0.01 0.01 0.01 0.01 0.02 0.03 0.02 0.02 0.02 0.02 0.02 0.02 0.03 0.05 0.08 0.07 0.07 0.06 0.04 0.06 0.11 0.11 0.11 0.13 0.15 0.17 0.18 0.15 0.13 0.10 0.09 0.11 0.12 0.11 0.11 0.11
0.01 0.02 0.03 0.06 0.07 0.03 0.01 0.01 0.00 0.01 0.01 0.01 0.01 0.01 0.01 0.01 0.01 0.01 0.03 0.01 0.01 0.01 0.02 0.02 0.01 0.03 0.07 0.10 0.09 0.06 0.07 0.05 0.06 0.08 0.08 0.07 0.08 0.10 0.12 0.12 0.10 0.11 0.10 0.10 0.10 0.11 0.11 0.11 0.09
0.02 0.05 0.07 0.05 0.02 0.01 0.00 0.00 0.00 0.01 0.01 0.01 0.01 0.01 0.02 0.01 0.01 0.01 0.03 0.02 0.01 0.01 0.03 0.02 0.01 0.04 0.12 0.15 0.10 0.06 0.06 0.04 0.06 0.07 0.06 0.06 0.06 0.06 0.07 0.08 0.07 0.07 0.07 0.07 0.07 0.07 0.07 0.09 0.08
0.10 0.08 0.06 0.05 0.02 0.01 0.00 0.00 0.00 0.01 0.01 0.01 0.01 0.02 0.03 0.03 0.01 0.01 0.03 0.02 0.01 0.02 0.03 0.02 0.01 0.04 0.07 0.07 0.08 0.07 0.09 0.07 0.10 0.10 0.06 0.06 0.05 0.05 0.06 0.07 0.06 0.06 0.06 0.05 0.06 0.06 0.06 0.07 0.07
0.06 0.08 0.04 0.02 0.02 0.01 0.00 0.00 0.00 0.01 0.01 0.01 0.01 0.02 0.03 0.05 0.04 0.03 0.03 0.03 0.03 0.04 0.04 0.03 0.02 0.02 0.04 0.05 0.08 0.09 0.15 0.14 0.13 0.11 0.09 0.07 0.06 0.04 0.05 0.05 0.05 0.06 0.06 0.04 0.05 0.07 0.09 0.10 0.10
0.02 0.03 0.04 0.04 0.03 0.01 0.00 0.01 0.00 0.01 0.01 0.00 0.00 0.02 0.02 0.03 0.04 0.04 0.04 0.04 0.04 0.05 0.05 0.04 0.04 0.04 0.05 0.10 0.11 0.17 0.28 0.23 0.15 0.12 0.12 0.11 0.10 0.09 0.06 0.04 0.04 0.06 0.07 0.04 0.04 0.07 0.15 0.19 0.16
0.01 0.04 0.04 0.02 0.02 0.01 0.01 0.01 0.01 0.01 0.01 0.00 0.01 0.02 0.02 0.03 0.03 0.02 0.03 0.03 0.04 0.04 0.04 0.04 0.04 0.05 0.05 0.06 0.09 0.12 0.20 0.19 0.18 0.15 0.12 0.13 0.16 0.15 0.14 0.08 0.04 0.05 0.06 0.05 0.05 0.10 0.21 0.23 0.16
0.02 0.04 0.01 0.01 0.01 0.01 0.01 0.01 0.01 0.02 0.01 0.01 0.01 0.02 0.04 0.04 0.02 0.02 0.01 0.01 0.02 0.02 0.03 0.04 0.05 0.05 0.06 0.06 0.09 0.11 0.11 0.11 0.11 0.13 0.12 0.13 0.15 0.13 0.11 0.10 0.07 0.04 0.04 0.06 0.09 0.18 0.25 0.18 0.16
0.01 0.01 0.01 0.01 0.01 0.01 0.01 0.01 0.01 0.02 0.01 0.01 0.02 0.02 0.03 0.04 0.02 0.01 0.01 0.01 0.01 0.02 0.03 0.02 0.03 0.03 0.05 0.09 0.11 0.10 0.10 0.09 0.08 0.08 0.09 0.11 0.11 0.09 0.08 0.11 0.11 0.10 0.08 0.11 0.14 0.15 0.17 0.17 0.17
0.00 0.00 0.01 0.01 0.01 0.01 0.01 0.01 0.01 0.02 0.02 0.02 0.02 0.02 0.02 0.03 0.02 0.01 0.01 0.01 0.01 0.02 0.02 0.01 0.01 0.02 0.04 0.07 0.10 0.10 0.09 0.07 0.07 0.07 0.07 0.09 0.09 0.08 0.07 0.09 0.09 0.10 0.11 0.13 0.14 0.13 0.12 0.13 0.11
0.00 0.00 0.00 0.01 0.01 0.01 0.01 0.01 0.02 0.03 0.01 0.02 0.02 0.02 0.02 0.02 0.02 0.01 0.01 0.01 0.00 0.01 0.02 0.01 0.02 0.04 0.05 0.05 0.08 0.09 0.09 0.09 0.09 0.08 0.08 0.08 0.06 0.07 0.08 0.06 0.08 0.09 0.08 0.10 0.11 0.12 0.14 0.12 0.11
0.00 0.00 0.00 0.00 0.01 0.02 0.01 0.01 0.02 0.02 0.02 0.02 0.02 0.02 0.01 0.01 0.01 0.01 0.01 0.01 0.01 0.01 0.01 0.01 0.03 0.06 0.07 0.07 0.08 0.08 0.07 0.08 0.08 0.08 0.08 0.08 0.07 0.07 0.09 0.10 0.10 0.10 0.10 0.12 0.13 0.13 0.13 0.12 0.11
0.00 0.00 0.00 0.00 0.00 0.01 0.01 0.03 0.03 0.02 0.02 0.01 0.01 0.01 0.01 0.01 0.01 0.01 0.01 0.01 0.01 0.00 0.01 0.01 0.03 0.06 0.08 0.08 0.08 0.07 0.05 0.04 0.05 0.07 0.07 0.07 0.08 0.09 0.10 0.11 0.11 0.10 0.10 0.13 0.14 0.13 0.11 0.09 0.09
0.01 0.01 0.01 0.00 0.00 0.00 0.01 0.03 0.02 0.02 0.01 0.01 0.01 0.00 0.00 0.00 0.01 0.01 0.00 0.00 0.00 0.00 0.00 0.01 0.01 0.03 0.04 0.04 0.05 0.04 0.04 0.03 0.04 0.04 0.05 0.07 0.09 0.09 0.09 0.09 0.10 0.10 0.09 0.11 0.11 0.11 0.08 0.07 0.08
0.01 0.01 0.01 0.01 0.00 0.01 0.02 0.02 0.01 0.01 0.01 0.00 0.00 0.00 0.00 0.00 0.00 0.00 0.00 0.00 0.01 0.01 0.01 0.01 0.02 0.01 0.02 0.02 0.03 0.04 0.04 0.03 0.04 0.04 0.05 0.07 0.07 0.07 0.06 0.08 0.08 0.08 0.08 0.08 0.07 0.09 0.09 0.07 0.08
0.00 0.01 0.01 0.01 0.01 0.01 0.02 0.01 0.01 0.01 0.01 0.01 0.00 0.00 0.00 0.00 0.00 0.00 0.00 0.00 0.00 0.01 0.01 0.01 0.01 0.01 0.02 0.03 0.03 0.04 0.04 0.04 0.03 0.04 0.05 0.04 0.05 0.05 0.06 0.06 0.07 0.08 0.08 0.08 0.07 0.07 0.08 0.07 0.07
0.00 0.01 0.01 0.01 0.00 0.00 0.00 0.01 0.01 0.01 0.01 0.01 0.00 0.00 0.00 0.00 0.00 0.00 0.00 0.00 0.00 0.01 0.00 0.01 0.01 0.01 0.02 0.02 0.03 0.05 0.05 0.05 0.04 0.04 0.03 0.03 0.02 0.03 0.05 0.06 0.06 0.08 0.08 0.07 0.06 0.08 0.09 0.08 0.07
0.00 0.00 0.00 0.00 0.00 0.00 0.00 0.00 0.00 0.00 0.01 0.01 0.00 0.00 0.00 0.00 0.00 0.00 0.00 0.00 0.00 0.01 0.01 0.01 0.01 0.02 0.01 0.02 0.02 0.03 0.04 0.05 0.04 0.03 0.04 0.03 0.03 0.04 0.05 0.07 0.06 0.07 0.09 0.08 0.07 0.09 0.08 0.07 0.07
0.00 0.00 0.00 0.00 0.00 0.00 0.01 0.02 0.01 0.00 0.00 0.01 0.00 0.00 0.00 0.00 0.00 0.00 0.00 0.00 0.00 0.00 0.01 0.01 0.02 0.02 0.02 0.02 0.02 0.03 0.05 0.04 0.04 0.04 0.04 0.03 0.04 0.03 0.05 0.06 0.06 0.07 0.07 0.08 0.07 0.06 0.07 0.08 0.07
0.00 0.00 0.00 0.00 0.01 0.01 0.02 0.03 0.03 0.00 0.00 0.00 0.00 0.00 0.01 0.01 0.01 0.00 0.00 0.00 0.00 0.00 0.00 0.01 0.02 0.02 0.02 0.02 0.02 0.04 0.04 0.04 0.05 0.08 0.05 0.05 0.04 0.04 0.04 0.04 0.04 0.05 0.05 0.06 0.04 0.05 0.06 0.09 0.10
0.00 0.00 0.00 0.01 0.02 0.03 0.02 0.04 0.04 0.00 0.00 0.00 0.00 0.00 0.01 0.01 0.01 0.00 0.00 0.00 0.00 0.00 0.00 0.01 0.02 0.02 0.02 0.03 0.03 0.03 0.03 0.03 0.03 0.08 0.07 0.06 0.06 0.05 0.03 0.03 0.04 0.04 0.03 0.04 0.04 0.05 0.06 0.08 0.08
0.00 0.00 0.00 0.00 0.02 0.06 0.02 0.02 0.02 0.00 0.00 0.00 0.00 0.00 0.00 0.00 0.00 0.00 0.00 0.02 0.02 0.01 0.01 0.01 0.02 0.03 0.03 0.03 0.04 0.04 0.04 0.05 0.06 0.05 0.05 0.04 0.03 0.03 0.02 0.03 0.03 0.03 0.04 0.05 0.04 0.04 0.05 0.07 0.08
0.00 0.00 0.01 0.01 0.01 0.02 0.01 0.01 0.03 0.00 0.00 0.00 0.00 0.00 0.00 0.00 0.00 0.00 0.00 0.02 0.03 0.02 0.01 0.01 0.01 0.02 0.02 0.04 0.04 0.04 0.03 0.04 0.06 0.06 0.06 0.05 0.04 0.04 0.04 0.03 0.04 0.04 0.04 0.04 0.05 0.05 0.06 0.06 0.07
0.00 0.00 0.00 0.01 0.01 0.01 0.00 0.02 0.04 0.01 0.00 0.00 0.00 0.00 0.00 0.00 0.00 0.00 0.00 0.01 0.02 0.01 0.01 0.01 0.01 0.01 0.01 0.02 0.03 0.04 0.05 0.04 0.05 0.06 0.04 0.05 0.04 0.04 0.04 0.04 0.04 0.04 0.04 0.04 0.06 0.05 0.06 0.06 0.07
0.00 0.00 0.00 0.00 0.00 0.00 0.01 0.01 0.01 0.01 0.01 0.00 0.00 0.00 0.00 0.00 0.00 0.00 0.00 0.00 0.01 0.01 0.01 0.01 0.02 0.04 0.02 0.02 0.03 0.04 0.05 0.05 0.06 0.06 0.05 0.05 0.04 0.04 0.04 0.04 0.05 0.05 0.05 0.04 0.04 0.05 0.06 0.07 0.07
0.00 0.00 0.00 0.00 0.00 0.01 0.01 0.02 0.03 0.01 0.01 0.00 0.00 0.00 0.01 0.01 0.01 0.00 0.00 0.01 0.01 0.01 0.01 0.01 0.03 0.06 0.04 0.02 0.02 0.03 0.05 0.05 0.06 0.07 0.07 0.07 0.06 0.05 0.06 0.06 0.05 0.06 0.05 0.05 0.06 0.06 0.07 0.09 0.07
0.00 0.00 0.00 0.00 0.00 0.01 0.01 0.02 0.02 0.01 0.01 0.01 0.00 0.00 0.01 0.01 0.00 0.00 0.00 0.01 0.01 0.02 0.01 0.01 0.02 0.03 0.04 0.02 0.02 0.03 0.07 0.09 0.06 0.06 0.04 0.05 0.05 0.05 0.06 0.06 0.07 0.07 0.07 0.08 0.08 0.07 0.10 0.11 0.09
0.00 0.00 0.00 0.00 0.00 0.00 0.01 0.02 0.02 0.02 0.01 0.00 0.00 0.00 0.00 0.00 0.00 0.00 0.02 0.02 0.01 0.01 0.01 0.02 0.02 0.02 0.02 0.03 0.04 0.05 0.06 0.07 0.06 0.06 0.04 0.04 0.04 0.04 0.04 0.05 0.07 0.07 0.09 0.09 0.09 0.08 0.09 0.09 0.08
MSLP
1002.63 1003.41 1004.38 1005.37 1006.24 1006.85 1007.12 1007.05 1006.74 1006.31 1005.96 1005.82 1005.99 1006.47 1007.21 1008.07 1008.92 1009.60 1010.05 1010.26 1010.27 1010.18 1010.10 1010.11 1010.25 1010.50 1010.82 1011.13 1011.38 1011.52 1011.56 1011.55 1011.53 1011.58 1011.73 1011.97 1012.27 1012.58 1012.84 1013.01 1013.08 1013.06 1013.01 1012.96 1012.96 1013.03 1013.16 1013.32 1013.48
1002.86 1003.78 1004.83 1005.84 1006.67 1007.18 1007.35 1007.18 1006.78 1006.32 1005.95 1005.81 1005.98 1006.46 1007.16 1007.97 1008.74 1009.37 1009.79 1010.00 1010.08 1010.09 1010.14 1010.29 1010.56 1010.91 1011.28 1011.61 1011.83 1011.94 1011.94 1011.89 1011.86 1011.90 1012.04 1012.27 1012.56 1012.85 1013.08 1013.21 1013.25 1013.21 1013.14 1013.09 1013.10 1013.17 1013.30 1013.44 1013.56
1003.19 1004.21 1005.29 1006.29 1007.04 1007.46 1007.51 1007.26 1006.80 1006.32 1005.97 1005.86 1006.05 1006.53 1007.21 1007.96 1008.67 1009.23 1009.60 1009.81 1009.91 1010.00 1010.15 1010.41 1010.78 1011.21 1011.63 1011.98 1012.20 1012.30 1012.29 1012.23 1012.20 1012.24 1012.38 1012.61 1012.87 1013.12 1013.31 1013.40 1013.40 1013.34 1013.27 1013.23 1013.25 1013.34 1013.46 1013.58 1013.67
1003.51 1004.57 1005.66 1006.59 1007.26 1007.58 1007.55 1007.24 1006.77 1006.31 1006.01 1005.96 1006.21 1006.71 1007.37 1008.08 1008.72 1009.21 1009.53 1009.71 1009.83 1009.96 1010.17 1010.50 1010.94 1011.42 1011.88 1012.24 1012.48 1012.58 1012.59 1012.55 1012.54 1012.60 1012.75 1012.96 1013.19 1013.40 1013.54 1013.58 1013.55 1013.47 1013.40 1013.38 1013.42 1013.52 1013.64 1013.74 1013.79
1003.75 1004.79 1005.81 1006.67 1007.24 1007.48 1007.39 1007.07 1006.64 1006.25 1006.05 1006.10 1006.42 1006.96 1007.63 1008.31 1008.89 1009.32 1009.58 1009.74 1009.85 1010.00 1010.24 1010.61 1011.08 1011.58 1012.05 1012.42 1012.67 1012.78 1012.81 1012.81 1012.83 1012.92 1013.07 1013.27 1013.48 1013.64 1013.73 1013.72 1013.66 1013.57 1013.51 1013.50 1013.56 1013.67 1013.80 1013.88 1013.89
1003.83 1004.79 1005.71 1006.46 1006.93 1007.11 1007.01 1006.73 1006.39 1006.13 1006.06 1006.24 1006.66 1007.26 1007.95 1008.61 1009.15 1009.52 1009.75 1009.88 1009.98 1010.13 1010.39 1010.76 1011.23 1011.72 1012.17 1012.54 1012.77 1012.90 1012.96 1012.99 1013.04 1013.16 1013.32 1013.51 1013.69 1013.80 1013.84 1013.79 1013.69 1013.59 1013.53 1013.54 1013.61 1013.74 1013.86 1013.93 1013.90
1003.74 1004.57 1005.35 1005.97 1006.36 1006.50 1006.43 1006.24 1006.04 1005.94 1006.05 1006.37 1006.91 1007.57 1008.28 1008.93 1009.44 1009.78 1009.99 1010.10 1010.20 1010.35 1010.61 1010.97 1011.41 1011.87 1012.28 1012.61 1012.82 1012.94 1013.01 1013.06 1013.15 1013.28 1013.45 1013.63 1013.77 1013.84 1013.83 1013.74 1013.61 1013.49 1013.42 1013.43 1013.51 1013.64 1013.76 1013.82 1013.77
1003.54 1004.20 1004.81 1005.29 1005.60 1005.73 1005.72 1005.66 1005.63 1005.73 1006.01 1006.49 1007.13 1007.86 1008.59 1009.23 1009.72 1010.05 1010.24 1010.35 1010.46 1010.63 1010.88 1011.23 1011.63 1012.03 1012.39 1012.66 1012.83 1012.93 1012.98 1013.04 1013.14 1013.28 1013.45 1013.61 1013.72 1013.75 1013.69 1013.55 1013.39 1013.24 1013.16 1013.16 1013.23 1013.36 1013.47 1013.52 1013.47
1003.31 1003.77 1004.20 1004.55 1004.79 1004.92 1005.00 1005.08 1005.23 1005.52 1005.98 1006.60 1007.34 1008.11 1008.85 1009.47 1009.94 1010.26 1010.45 1010.58 1010.72 1010.90 1011.17 1011.50 1011.86 1012.21 1012.49 1012.69 1012.81 1012.86 1012.89 1012.94 1013.03 1013.17 1013.33 1013.47 1013.55 1013.54 1013.44 1013.27 1013.06 1012.88 1012.77 1012.75 1012.81 1012.91 1013.01 1013.06 1013.01
1003.15 1003.41 1003.66 1003.88 1004.05 1004.19 1004.35 1004.57 1004.90 1005.37 1005.98 1006.71 1007.51 1008.31 1009.03 1009.63 1010.08 1010.39 1010.59 1010.75 1010.92 1011.14 1011.41 1011.73 1012.06 1012.36 1012.58 1012.71 1012.77 1012.77 1012.77 1012.79 1012.87 1012.99 1013.14 1013.25 1013.31 1013.28 1013.14 1012.94 1012.70 1012.49 1012.35 1012.29 1012.32 1012.39 1012.47 1012.50 1012.47
1003.13 1003.21 1003.29 1003.38 1003.48 1003.64 1003.87 1004.21 1004.68 1005.29 1006.02 1006.83 1007.66 1008.45 1009.14 1009.70 1010.12 1010.42 1010.63 1010.82 1011.03 1011.28 1011.58 1011.90 1012.21 1012.46 1012.63 1012.70 1012.70 1012.66 1012.62 1012.62 1012.67 1012.78 1012.91 1013.02 1013.06 1013.01 1012.87 1012.65 1012.39 1012.16 1011.98 1011.88 1011.86 1011.90 1011.95 1011.96 1011.93
1003.29 1003.21 1003.14 1003.10 1003.15 1003.30 1003.58 1004.00 1004.58 1005.29 1006.09 1006.93 1007.76 1008.52 1009.17 1009.69 1010.07 1010.35 1010.58 1010.79 1011.03 1011.32 1011.63 1011.96 1012.26 1012.48 1012.61 1012.64 1012.60 1012.53 1012.46 1012.44 1012.48 1012.58 1012.70 1012.81 1012.85 1012.81 1012.68 1012.46 1012.20 1011.95 1011.75 1011.62 1011.55 1011.54 1011.55 1011.55 1011.51
1003.61 1003.40 1003.19 1003.06 1003.03 1003.16 1003.46 1003.94 1004.57 1005.33 1006.16 1007.01 1007.82 1008.53 1009.13 1009.60 1009.95 1010.22 1010.45 1010.68 1010.94 1011.25 1011.58 1011.91 1012.20 1012.41 1012.52 1012.54 1012.48 1012.39 1012.31 1012.28 1012.31 1012.41 1012.53 1012.65 1012.71 1012.70 1012.59 1012.40 1012.17 1011.92 1011.71 1011.55 1011.45 1011.39 1011.37 1011.34 1011.29
1004.03 1003.72 1003.41 1003.19 1003.10 1003.20 1003.49 1003.97 1004.61 1005.37 1006.20 1007.02 1007.79 1008.46 1009.02 1009.45 1009.78 1010.04 1010.27 1010.51 1010.78 1011.09 1011.43 1011.77 1012.05 1012.26 1012.38 1012.40 1012.35 1012.26 1012.19 1012.16 1012.19 1012.29 1012.42 1012.55 1012.64 1012.67 1012.61 1012.46 1012.27 1012.05 1011.85 1011.68 1011.55 1011.47 1011.41 1011.36 1011.30
1004.46 1004.08 1003.71 1003.42 1003.29 1003.34 1003.60 1004.05 1004.66 1005.38 1006.16 1006.93 1007.66 1008.29 1008.82 1009.24 1009.57 1009.83 1010.07 1010.32 1010.59 1010.90 1011.23 1011.55 1011.84 1012.06 1012.19 1012.23 1012.21 1012.16 1012.10 1012.08 1012.12 1012.22 1012.35 1012.50 1012.62 1012.68 1012.68 1012.59 1012.45 1012.28 1012.10 1011.94 1011.81 1011.71 1011.64 1011.58 1011.52
1004.83 1004.42 1004.02 1003.70 1003.53 1003.55 1003.75 1004.14 1004.67 1005.32 1006.02 1006.73 1007.40 1008.01 1008.54 1008.97 1009.32 1009.61 1009.87 1010.12 1010.40 1010.69 1011.01 1011.32 1011.61 1011.84 1012.00 1012.09 1012.12 1012.10 1012.08 1012.08 1012.12 1012.21 1012.33 1012.48 1012.61 1012.71 1012.75 1012.73 1012.65 1012.53 1012.39 1012.25 1012.13 1012.04 1011.97 1011.91 1011.87
1005.10 1004.69 1004.31 1004.00 1003.82 1003.80 1003.95 1004.24 1004.66 1005.19 1005.78 1006.40 1007.02 1007.60 1008.14 1008.60 1009.00 1009.34 1009.64 1009.92 1010.20 1010.48 1010.78 1011.09 1011.38 1011.63 1011.84 1011.99 1012.07 1012.12 1012.13 1012.15 1012.19 1012.26 1012.36 1012.48 1012.61 1012.72 1012.79 1012.81 1012.79 1012.72 1012.63 1012.53 1012.44 1012.37 1012.32 1012.29 1012.27
1005.24 1004.90 1004.58 1004.32 1004.17 1004.12 1004.19 1004.36 1004.63 1005.00 1005.44 1005.94 1006.49 1007.05 1007.60 1008.12 1008.59 1009.00 1009.36 1009.68 1009.98 1010.26 1010.56 1010.86 1011.16 1011.46 1011.72 1011.93 1012.10 1012.20 1012.26 1012.30 1012.33 1012.37 1012.43 1012.51 1012.60 1012.70 1012.78 1012.83 1012.85 1012.83 1012.79 1012.74 1012.68 1012.65 1012.63 1012.64 1012.66
1005.29 1005.05 1004.85 1004.69 1004.58 1004.52 1004.50 1004.53 1004.62 1004.78 1005.03 1005.37 1005.81 1006.33 1006.89 1007.47 1008.03 1008.54 1008.98 1009.35 1009.69 1009.99 1010.29 1010.61 1010.94 1011.28 1011.62 1011.92 1012.16 1012.34 1012.46 1012.51 1012.53 1012.53 1012.54 1012.56 1012.60 1012.67 1012.74 1012.80 1012.85 1012.87 1012.87 1012.85 1012.84 1012.84 1012.86 1012.92 1013.00
1005.28 1005.20 1005.16 1005.13 1005.09 1005.02 1004.91 1004.77 1004.63 1004.54 1004.55 1004.70 1005.00 1005.45 1006.01 1006.64 1007.29 1007.89 1008.43 1008.89 1009.28 1009.62 1009.96 1010.30 1010.68 1011.08 1011.49 1011.89 1012.23 1012.49 1012.66 1012.75 1012.76 1012.72 1012.67 1012.63 1012.62 1012.64 1012.69 1012.75 1012.81 1012.86 1012.90 1012.92 1012.94 1012.98 1013.04 1013.13 1013.26
1005.25 1005.37 1005.52 1005.65 1005.69 1005.61 1005.39 1005.06 1004.67 1004.30 1004.03 1003.95 1004.08 1004.42 1004.96 1005.62 1006.35 1007.05 1007.69 1008.25 1008.71 1009.11 1009.50 1009.89 1010.32 1010.80 1011.29 1011.78 1012.22 1012.58 1012.82 1012.94 1012.96 1012.90 1012.81 1012.72 1012.66 1012.64 1012.66 1012.73 1012.80 1012.87 1012.94 1012.99 1013.03 1013.09 1013.17 1013.30 1013.46
1005.23 1005.57 1005.92 1006.21 1006.33 1006.23 1005.90 1005.36 1004.71 1004.04 1003.49 1003.15 1003.08 1003.30 1003.79 1004.47 1005.25 1006.05 1006.79 1007.44 1007.98 1008.46 1008.90 1009.34 1009.84 1010.38 1010.97 1011.55 1012.09 1012.53 1012.85 1013.02 1013.07 1013.01 1012.91 1012.79 1012.70 1012.66 1012.68 1012.74 1012.83 1012.93 1013.02 1013.09 1013.15 1013.21 1013.30 1013.44 1013.61
1005.23 1005.77 1006.32 1006.75 1006.93 1006.81 1006.36 1005.63 1004.72 1003.77 1002.94 1002.35 1002.08 1002.17 1002.59 1003.26 1004.09 1004.96 1005.79 1006.52 1007.14 1007.68 1008.18 1008.68 1009.23 1009.84 1010.49 1011.16 1011.78 1012.31 1012.70 1012.94 1013.03 1013.01 1012.92 1012.81 1012.72 1012.69 1012.71 1012.80 1012.91 1013.03 1013.14 1013.22 1013.29 1013.35 1013.43 1013.55 1013.72
1005.23 1005.95 1006.66 1007.19 1007.42 1007.26 1006.70 1005.80 1004.67 1003.48 1002.41 1001.60 1001.16 1001.13 1001.48 1002.13 1002.98 1003.90 1004.79 1005.59 1006.27 1006.86 1007.40 1007.94 1008.53 1009.18 1009.88 1010.61 1011.30 1011.90 1012.37 1012.68 1012.83 1012.86 1012.81 1012.73 1012.68 1012.68 1012.74 1012.86 1013.00 1013.15 1013.28 1013.37 1013.43 1013.48 1013.54 1013.63 1013.77
1005.23 1006.07 1006.87 1007.46 1007.70 1007.51 1006.86 1005.83 1004.54 1003.18 1001.93 1000.97 1000.41 1000.29 1000.58 1001.21 1002.06 1003.00 1003.92 1004.75 1005.47 1006.09 1006.65 1007.20 1007.80 1008.47 1009.20 1009.95 1010.69 1011.35 1011.87 1012.25 1012.47 1012.56 1012.58 1012.56 1012.56 1012.61 1012.72 1012.88 1013.06 1013.23 1013.38 1013.48 1013.53 1013.56 1013.58 1013.64 1013.75
1005.20 1006.10 1006.93 1007.53 1007.74 1007.50 1006.79 1005.68 1004.31 1002.87 1001.55 1000.52 999.90 999.73 999.98 1000.59 1001.43 1002.36 1003.29 1004.12 1004.84 1005.46 1006.01 1006.55 1007.13 1007.79 1008.51 1009.27 1010.02 1010.71 1011.28 1011.71 1011.99 1012.16 1012.24 1012.30 1012.36 1012.47 1012.62 1012.82 1013.04 1013.24 1013.39 1013.49 1013.53 1013.54 1013.53 1013.55 1013.62
1005.16 1006.04 1006.83 1007.37 1007.53 1007.24 1006.50 1005.37 1004.01 1002.58 1001.28 1000.28 999.67 999.50 999.75 1000.34 1001.15 1002.06 1002.95 1003.75 1004.44 1005.02 1005.53 1006.04 1006.59 1007.21 1007.90 1008.64 1009.38 1010.07 1010.67 1011.14 1011.48 1011.71 1011.86 1011.98 1012.10 1012.26 1012.46 1012.69 1012.92 1013.13 1013.29 1013.39 1013.42 1013.40 1013.37 1013.36 1013.40
1005.12 1005.91 1006.59 1007.02 1007.09 1006.75 1006.01 1004.93 1003.64 1002.32 1001.14 1000.24 999.71 999.60 999.87 1000.44 1001.22 1002.07 1002.90 1003.64 1004.26 1004.79 1005.25 1005.71 1006.21 1006.78 1007.42 1008.13 1008.84 1009.52 1010.13 1010.62 1011.00 1011.28 1011.48 1011.65 1011.82 1012.02 1012.24 1012.48 1012.72 1012.93 1013.09 1013.17 1013.19 1013.17 1013.12 1013.08 1013.10
1005.12 1005.75 1006.25 1006.53 1006.49 1006.10 1005.37 1004.37 1003.23 1002.09 1001.09 1000.36 999.98 999.95 1000.26 1000.83 1001.55 1002.33 1003.08 1003.73 1004.28 1004.74 1005.14 1005.54 1005.99 1006.51 1007.11 1007.77 1008.45 1009.11 1009.70 1010.21 1010.61 1010.91 1011.16 1011.36 1011.56 1011.77 1012.00 1012.24 1012.47 1012.67 1012.81 1012.88 1012.90 1012.86 1012.81 1012.77 1012.77
1005.18 1005.59 1005.88 1005.96 1005.79 1005.33 1004.63 1003.75 1002.78 1001.86 1001.09 1000.58 1000.35 1000.44 1000.79 1001.35 1002.02 1002.71 1003.36 1003.92 1004.39 1004.77 1005.12 1005.48 1005.88 1006.37 1006.93 1007.55 1008.20 1008.83 1009.41 1009.91 1010.31 1010.64 1010.90 1011.12 1011.33 1011.54 1011.76 1011.99 1012.20 1012.37 1012.50 1012.57 1012.58 1012.55 1012.49 1012.45 1012.44
Thickness
5837 5838 5837 5827 5810 5804 5804 5817 5825 5824 5826 5835 5836 5828 5815 5807 5796 5783 5809 5820 5818 5814 5810 5805 5802 5801 5799 5797 5796 5795 5794 5793 5792 5792 5791 5789 5788 5787 5785 5784 5782 5781 5780 5779 5778 5778 5777 5776 5774
5844 5845 5836 5823 5805 5798 5804 5822 5823 5826 5834 5840 5837 5829 5817 5810 5815 5811 5815 5819 5819 5815 5811 5806 5802 5800 5799 5797 5795 5794 5793 5792 5791 5790 5789 5789 5787 5786 5784 5782 5781 5780 5779 5778 5777 5776 5775 5774 5772
5847 5847 5828 5818 5812 5805 5808 5826 5829 5836 5843 5839 5830 5827 5816 5808 5815 5815 5819 5823 5821 5816 5812 5806 5803 5800 5798 5796 5795 5794 5792 5791 5790 5788 5788 5787 5786 5785 5783 5781 5780 5779 5777 5777 5776 5775 5773 5772 5771
5848 5842 5832 5820 5814 5826 5829 5834 5839 5836 5839 5840 5831 5817 5815 5822 5821 5822 5826 5826 5821 5817 5813 5806 5803 5800 5798 5796 5795 5794 5792 5791 5789 5788 5787 5786 5785 5784 5782 5781 5779 5777 5776 5775 5774 5773 5772 5771 5770
5850 5833 5819 5817 5826 5836 5844 5846 5844 5835 5833 5834 5827 5810 5807 5823 5829 5828 5827 5825 5821 5817 5813 5807 5803 5801 5798 5796 5795 5794 5792 5791 5789 5787 5786 5785 5784 5783 5782 5780 5779 5777 5776 5774 5773 5772 5771 5770 5769
5836 5835 5816 5816 5827 5839 5847 5852 5846 5836 5835 5835 5826 5811 5807 5825 5826 5826 5827 5825 5823 5818 5811 5806 5803 5801 5798 5796 5794 5793 5791 5790 5788 5786 5785 5784 5783 5782 5781 5780 5779 5777 5775 5774 5772 5771 5770 5769 5768
5834 5829 5822 5828 5830 5833 5844 5855 5845 5838 5832 5834 5834 5813 5809 5821 5826 5828 5826 5825 5823 5819 5813 5807 5804 5801 5798 5795 5794 5793 5791 5789 5788 5786 5785 5784 5783 5782 5781 5779 5778 5777 5775 5774 5772 5771 5770 5769 5768
5859 5840 5832 5834 5831 5832 5851 5855 5853 5845 5835 5846 5843 5818 5809 5820 5830 5829 5826 5823 5821 5818 5814 5810 5807 5803 5799 5796 5794 5793 5791 5789 5788 5786 5784 5784 5783 5782 5781 5779 5778 5777 5775 5774 5773 5772 5770 5770 5768
5871 5838 5827 5837 5837 5839 5854 5850 5852 5857 5844 5842 5843 5835 5830 5833 5831 5825 5820 5817 5815 5815 5814 5812 5809 5805 5802 5798 5795 5793 5791 5789 5787 5786 5785 5784 5784 5784 5782 5780 5779 5777 5776 5775 5774 5772 5771 5770 5769
5864 5835 5839 5857 5859 5854 5855 5852 5853 5848 5837 5834 5834 5836 5837 5833 5827 5820 5815 5812 5810 5810 5812 5811 5808 5806 5803 5800 5795 5794 5793 5790 5789 5788 5786 5785 5785 5785 5783 5781 5779 5778 5777 5775 5774 5773 5771 5770 5769
5866 5850 5859 5866 5871 5867 5858 5856 5860 5846 5831 5833 5830 5830 5832 5829 5825 5820 5817 5815 5812 5811 5811 5811 5808 5806 5804 5801 5798 5796 5795 5792 5791 5789 5788 5787 5786 5785 5783 5781 5780 5778 5777 5776 5775 5773 5772 5771 5770
5867 5867 5871 5870 5874 5869 5861 5859 5853 5848 5843 5850 5846 5840 5834 5828 5825 5822 5818 5816 5814 5812 5811 5811 5809 5806 5804 5802 5800 5798 5796 5794 5792 5790 5789 5787 5786 5785 5784 5782 5781 5780 5779 5778 5776 5774 5773 5773 5772
5866 5867 5874 5875 5874 5871 5867 5857 5850 5850 5856 5856 5849 5842 5835 5832 5829 5827 5825 5821 5817 5813 5812 5811 5809 5805 5803 5801 5800 5798 5797 5795 5793 5791 5789 5787 5786 5784 5784 5783 5782 5781 5780 5779 5778 5776 5775 5774 5773
5870 5871 5872 5873 5872 5871 5861 5856 5852 5849 5857 5851 5845 5839 5837 5834 5832 5828 5824 5821 5818 5816 5814 5813 5810 5806 5804 5802 5800 5798 5797 5795 5794 5791 5789 5788 5786 5785 5784 5783 5782 5781 5781 5780 5778 5776 5775 5774 5773
5875 5863 5863 5868 5871 5871 5863 5843 5848 5856 5857 5846 5842 5840 5838 5836 5834 5829 5827 5823 5821 5819 5816 5813 5811 5808 5805 5803 5801 5799 5798 5796 5795 5792 5790 5788 5787 5786 5784 5783 5782 5782 5781 5780 5778 5777 5776 5775 5773
5863 5849 5837 5860 5872 5872 5854 5828 5851 5861 5854 5844 5842 5841 5838 5836 5835 5834 5831 5827 5825 5821 5817 5815 5815 5809 5806 5804 5801 5800 5798 5796 5795 5792 5790 5788 5787 5786 5785 5784 5783 5783 5782 5780 5779 5777 5775 5774 5772
5845 5831 5834 5853 5872 5871 5857 5838 5854 5865 5856 5846 5844 5842 5839 5836 5835 5835 5834 5831 5827 5823 5819 5815 5813 5810 5807 5804 5802 5800 5799 5797 5795 5793 5790 5788 5788 5787 5786 5785 5784 5783 5782 5781 5780 5777 5774 5772 5770
5836 5840 5844 5851 5868 5867 5855 5849 5858 5864 5860 5851 5848 5844 5841 5837 5836 5838 5837 5834 5830 5825 5820 5816 5813 5811 5808 5805 5802 5800 5799 5797 5796 5793 5791 5789 5788 5788 5786 5785 5784 5783 5782 5780 5778 5775 5774 5773 5771
5859 5849 5845 5857 5873 5863 5853 5852 5859 5864 5861 5855 5851 5846 5843 5841 5843 5842 5839 5836 5830 5825 5820 5816 5812 5810 5808 5804 5800 5797 5795 5795 5795 5794 5792 5790 5789 5788 5786 5785 5783 5782 5780 5778 5777 5775 5772 5771 5771
5859 5846 5847 5860 5873 5863 5853 5853 5865 5866 5863 5862 5856 5851 5847 5843 5842 5840 5838 5835 5830 5825 5820 5816 5813 5810 5808 5805 5803 5801 5799 5797 5796 5795 5793 5791 5790 5788 5787 5784 5783 5782 5779 5777 5776 5774 5771 5771 5771
5855 5851 5851 5852 5863 5867 5852 5841 5853 5863 5867 5865 5863 5859 5856 5849 5843 5840 5837 5834 5831 5826 5822 5819 5815 5812 5809 5807 5805 5802 5799 5796 5794 5793 5792 5791 5790 5788 5787 5785 5784 5782 5780 5777 5775 5774 5771 5766 5768
5846 5868 5866 5858 5845 5838 5843 5816 5836 5853 5855 5856 5858 5859 5858 5855 5850 5844 5839 5835 5832 5830 5827 5822 5817 5813 5810 5808 5804 5799 5794 5791 5792 5792 5792 5791 5790 5789 5787 5785 5784 5782 5780 5778 5776 5774 5772 5768 5764
5860 5873 5863 5851 5839 5830 5840 5824 5831 5851 5846 5851 5857 5860 5862 5860 5854 5848 5844 5838 5836 5834 5829 5823 5818 5814 5811 5808 5804 5800 5797 5795 5795 5794 5792 5791 5790 5789 5787 5786 5784 5782 5779 5777 5776 5774 5771 5769 5765
5871 5864 5854 5849 5835 5810 5833 5826 5823 5848 5852 5855 5860 5862 5862 5862 5858 5852 5848 5841 5837 5835 5830 5824 5817 5812 5811 5808 5805 5800 5797 5795 5793 5791 5789 5788 5789 5788 5787 5786 5784 5782 5779 5777 5775 5773 5770 5768 5766
5862 5839 5813 5805 5804 5809 5842 5834 5834 5861 5870 5866 5862 5862 5864 5862 5857 5851 5845 5838 5834 5833 5830 5824 5817 5811 5809 5807 5804 5802 5798 5796 5792 5791 5790 5788 5788 5786 5786 5786 5783 5781 5779 5777 5774 5771 5769 5767 5764
5851 5843 5812 5795 5796 5813 5830 5826 5846 5872 5876 5876 5871 5867 5863 5860 5857 5852 5848 5842 5837 5834 5830 5825 5817 5811 5809 5806 5803 5802 5799 5797 5795 5793 5792 5790 5789 5788 5787 5785 5783 5781 5778 5776 5773 5771 5768 5766 5763
5844 5843 5854 5834 5826 5815 5821 5832 5849 5867 5865 5867 5865 5862 5858 5857 5854 5852 5850 5845 5841 5836 5831 5826 5818 5812 5809 5807 5804 5801 5799 5796 5795 5794 5792 5791 5790 5790 5788 5785 5783 5780 5778 5775 5773 5769 5767 5765 5763
5859 5854 5845 5828 5804 5794 5808 5818 5822 5839 5849 5855 5856 5856 5855 5855 5852 5850 5849 5845 5841 5836 5830 5828 5821 5814 5810 5807 5804 5802 5798 5796 5794 5792 5790 5789 5788 5787 5785 5783 5781 5779 5777 5774 5771 5768 5766 5763 5761
5844 5842 5839 5834 5828 5804 5789 5805 5843 5844 5850 5850 5854 5856 5853 5851 5850 5847 5846 5843 5839 5835 5829 5824 5820 5814 5810 5807 5804 5801 5797 5794 5791 5789 5787 5786 5785 5783 5781 5779 5778 5776 5774 5772 5769 5766 5764 5761 5758
5850 5842 5837 5815 5810 5815 5801 5803 5849 5847 5852 5855 5854 5853 5852 5851 5850 5846 5841 5836 5833 5829 5826 5821 5818 5813 5809 5806 5802 5799 5796 5792 5789 5786 5784 5783 5781 5780 5778 5777 5774 5773 5771 5769 5766 5763 5762 5759 5756